This is the latest recevied weather packets stored in our database for station/object VK3ANZ. If no packets are shown the sender has not sent any weather packets the latest 10 day(s).
| Time | Temp. | Humidity | Pressure | Rain* | Wind** | Luminosity | Snow |
|---|---|---|---|---|---|---|---|
| 1778149517 | 8.89° C | 52% | 1023.5 hPa | 0 mm | - | 0 W/m² | - |
| 1778141740 | 9.44° C | 82% | 1022.7 hPa | 0 mm | - | 0 W/m² | - |
| 1778139931 | 8.89° C | 81% | 1022.6 hPa | 0 mm | - | 0 W/m² | - |
| 1778135131 | 8.89° C | 57% | 1022.6 hPa | 0 mm | - | 25 W/m² | - |
| 1778121323 | 7.78° C | 77% | 1022.9 hPa | 0 mm | - | 111 W/m² | - |
| 1778117131 | 7.22° C | 82% | 1023.2 hPa | 0 mm | - | 115 W/m² | - |
| 1778116524 | 7.22° C | 81% | 1023.4 hPa | 0 mm | - | 47 W/m² | - |
| 1778113531 | 7.22° C | 81% | 1022.8 hPa | 0 mm | - | 110 W/m² | - |
| 1778110523 | 5.56° C | 82% | 1023 hPa | 0 mm | - | 32 W/m² | - |
| 1778109931 | 5.56° C | 83% | 1023 hPa | 0 mm | - | 100 W/m² | - |
| 1778108731 | 5.56° C | 82% | 1023 hPa | 0 mm | - | 86 W/m² | - |
| 1778106923 | 5.56° C | 79% | 1022.4 hPa | 0 mm | - | 46 W/m² | - |
| 1778104522 | 5.56° C | 81% | 1022.2 hPa | 0 mm | - | 0 W/m² | - |
| 1778099130 | 5.56° C | 82% | 1020.2 hPa | 0 mm | - | 0 W/m² | - |
| 1778098523 | 5° C | 82% | 1020.5 hPa | 0 mm | - | 0 W/m² | - |
| 1778093130 | 5.56° C | 46% | 1021.1 hPa | 0 mm | - | 0 W/m² | - |
| 1778087123 | 5.56° C | 38% | 1019.7 hPa | 0 mm | - | 0 W/m² | - |
| 1778072120 | 8.33° C | 40% | 1019.3 hPa | 0 mm | - | 0 W/m² | - |
| 1778071530 | 8.33° C | 47% | 1019.2 hPa | 0 mm | - | 0 W/m² | - |
| 1778069130 | 8.89° C | 52% | 1019 hPa | 0 mm | - | 0 W/m² | - |
| 1778063130 | 11.11° C | 74% | 1017.7 hPa | 0 mm | - | 0 W/m² | - |
| 1778058961 | 12.22° C | 69% | 1016.7 hPa | 0.25 mm | - | 0 W/m² | - |
| 1778055365 | 14.44° C | 31% | 1016 hPa | 0 mm | - | 0 W/m² | - |
| 1778052921 | 15° C | 27% | 1016 hPa | 0 mm | - | 0 W/m² | - |
| 1778048729 | 16.67° C | 21% | 1016.6 hPa | 0 mm | - | 39 W/m² | - |
* Rain latest hour (hover to see other rain measurements)
** Current wind speed in m/s (hover to see current wind gust speed)